George, South Africa

2:05 AM SAST on July 23, 2017 (GMT +0200)
George

Weather History for FAGG - May, 2012

Change the Weather History Date:

Friday, May 18, 2012

  Actual Average Record
Temperature  
Mean Temperature 52 °F -  
Max Temperature 57 °F 66 °F 87 °F (2001)
Min Temperature 46 °F 47 °F 43 °F (2013)
Degree Days  
Heating Degree Days 12    
Growing Degree Days 2 (Base 50)    
Moisture  
Dew Point 49 °F    
Average Humidity 83    
Maximum Humidity 100    
Minimum Humidity 60    
Precipitation  
Precipitation 0.08 in - - ()
Sea Level Pressure  
Sea Level Pressure 29.97 in    
Wind  
Wind Speed 12 mph ()    
Max Wind Speed 22 mph    
Max Gust Speed -    
Visibility 7.7 miles    
Events Rain    
Averages and records for this station are not official NWS values.
T = Trace of Precipitation, MM = Missing Value Source: Averaged Metar Reports

Daily Weather History Graph

Daily Weather History Graph

Search for Another Location

Airport or City:

Trip Planner

Search our weather history database for the weather conditions in past years. The results will help you decide how hot, cold, wet, or windy it might be!

Date:

Astronomy

May. 18, 2012 Rise Set
Actual Time 7:18 AM SAST 5:35 PM SAST
Civil Twilight 6:51 AM SAST 6:02 PM SAST
Nautical Twilight 6:21 AM SAST 6:32 PM SAST
Astronomical Twilight 5:51 AM SAST 7:02 PM SAST
Moon 4:56 AM SAST (5/18) 3:56 PM SAST (5/18)
Length of Visible Light 11h 10m
Length of Day
10h 17m
Waning Crescent, 6% of the Moon is Illuminated
May 18
Waning Crescent
May 21
New
May 28
First Quarter
Jun 4
Full
Jun 11
Last Quarter

Hourly Weather History & Observations

Time (SAST) Temp. Windchill Dew Point Humidity Pressure Visibility Wind Dir Wind Speed Gust Speed Precip Events Conditions
12:00 AM 55.4 °F - 55.4 °F 100% 29.83 in 3.7 mi NNW 5.8 mph - N/A   Scattered Clouds
1:00 AM 59.0 °F - 51.8 °F 77% 29.80 in - NW 11.5 mph - N/A   Clear
2:00 AM 57 °F - 48 °F 62% 29.81 in 19 mi WSW 8.1 mph - -  
2:00 AM 55.4 °F - 48.2 °F 77% 29.80 in - SSW 6.9 mph - N/A   Clear
3:00 AM 57.2 °F - 48.2 °F 72% 29.83 in - WSW 16.1 mph - N/A   Clear
4:00 AM 59.0 °F - 51.8 °F 77% 29.83 in 6.2 mi West 19.6 mph - N/A   Mostly Cloudy
5:00 AM 55 °F - 55 °F 98% 29.88 in 3 mi West 18.4 mph - - Rain Light Rain
5:00 AM 55.4 °F - 55.4 °F 100% 29.86 in - West 18.4 mph - N/A Rain Light Rain
6:00 AM 53.6 °F - 53.6 °F 100% 29.89 in - West 15.0 mph - N/A Rain Light Rain
7:00 AM 53.6 °F - 53.6 °F 100% 29.92 in - West 10.4 mph - N/A Rain Light Rain
8:00 AM 53 °F - 52 °F 96% 29.95 in 3 mi West 19.6 mph - - Rain Light Rain
8:00 AM 51.8 °F - 51.8 °F 100% 29.95 in 3.1 mi West 19.6 mph - N/A Rain Light Rain
9:00 AM 51.8 °F - 50.0 °F 94% 29.98 in 3.7 mi WNW 12.7 mph - N/A Rain Light Rain
10:00 AM 53.6 °F - 50.0 °F 88% 29.98 in 6.2 mi WNW 15.0 mph - N/A   Mostly Cloudy
11:00 AM 54 °F - 48 °F 74% 30.01 in 12 mi WNW 18.4 mph - -   Mostly Cloudy
11:00 AM 55.4 °F - 48.2 °F 77% 30.01 in 6.2 mi WNW 18.4 mph - N/A   Mostly Cloudy
12:00 PM 55.4 °F - 48.2 °F 77% 30.01 in 6.2 mi West 20.7 mph - N/A   Mostly Cloudy
1:00 PM 57.2 °F - 46.4 °F 67% 29.98 in 6.2 mi West 18.4 mph - N/A   Mostly Cloudy
2:00 PM 56 °F - 47 °F 62% 30.00 in 19 mi West 21.9 mph - -   Mostly Cloudy
2:00 PM 55.4 °F - 46.4 °F 72% 29.98 in 6.2 mi West 21.9 mph - N/A   Mostly Cloudy
3:00 PM 55.4 °F - 48.2 °F 77% 30.01 in 6.2 mi West 12.7 mph - N/A   Mostly Cloudy
4:00 PM 53.6 °F - 46.4 °F 77% 30.04 in 6.2 mi WSW 16.1 mph - N/A   Mostly Cloudy
5:00 PM 54 °F - 44 °F 60% 30.05 in 19 mi West 12.7 mph - -   Mostly Cloudy
5:00 PM 53.6 °F - 44.6 °F 72% 30.04 in 6.2 mi West 12.7 mph - N/A   Mostly Cloudy
6:00 PM 50.0 °F - 44.6 °F 82% 30.04 in 6.2 mi West 12.7 mph - N/A   Mostly Cloudy
7:00 PM 50.0 °F - 46.4 °F 87% 30.06 in 6.2 mi NW 6.9 mph - N/A Rain Light Rain
8:00 PM 49 °F - 46 °F 85% 30.11 in 12 mi WSW 12.7 mph - - Rain Light Rain
8:00 PM 48.2 °F - 46.4 °F 93% 30.09 in 6.2 mi West 12.7 mph - N/A   Mostly Cloudy
9:00 PM 48.2 °F - 46.4 °F 93% 30.09 in 6.2 mi NW 10.4 mph - N/A   Mostly Cloudy
10:00 PM 48.2 °F - 44.6 °F 87% 30.09 in 6.2 mi NW 9.2 mph - N/A   Scattered Clouds
11:00 PM 46.4 °F 41.9 °F 41.0 °F 81% 30.09 in - NW 9.2 mph - N/A   Clear